[[{"header":{"parameterUnit":"m.s-1","parameterCategory":1,"la1":30.2991,"la2":30.254,"lo1":-89.0895,"lo2":-89.0444,"dy":0.0017,"dx":0.0017,"nx":28,"ny":28,"refTime":"2023-11-11T09:00:00:Z","depth":0,"parameterNumber":2,"parameterNumberName":"U-component_of_WINDS"},"data":[0,0,0,0,0,0,0,0,0,0,0,0,0,0,0,0,0,0,0,0,0,0,0,0,0,0,0,0,0,0,0,0,0,0,0,0,0,0,0,0,0,0,0,0,0,0,0,0,0,0,0,0,0,0,0,0,0,0,-3.4476,-3.4475,0,-3.4411,-3.441,-3.4409,-3.4321,-3.4319,-3.4318,-3.4316,-3.4247,-3.4247,-3.4246,0,0,0,0,0,0,0,0,0,0,0,0,0,-3.4522,-3.4522,-3.4476,-3.4475,-3.4474,-3.4411,-3.441,-3.4409,-3.4321,-3.4319,-3.4317,-3.4315,-3.4247,-3.4247,-3.4246,0,0,0,0,0,0,0,0,0,0,0,0,0,-3.4484,-3.4522,-3.4476,-3.4423,-3.4417,-3.4411,-3.441,-3.4409,-3.4321,-3.4319,-3.4317,-3.4315,-3.4247,-3.4247,-3.4246,-3.4286,0,0,-3.4244,-3.4244,0,0,0,0,0,0,0,0,-3.4486,-3.4483,-3.4431,-3.4426,-3.442,-3.4371,-3.4401,-3.4367,-3.4322,-3.4358,-3.4316,-3.4314,-3.429,-3.4286,-3.4278,-3.4283,-3.428,-3.4244,-3.4243,-3.4243,-3.4243,0,0,0,0,0,0,0,-3.4489,-3.4485,-3.445,-3.4431,-3.4424,-3.4401,-3.4394,-3.4394,-3.4337,-3.4354,-3.4348,-3.4341,-3.4287,-3.4279,-3.4276,-3.4279,-3.4244,-3.4243,-3.4243,-3.4242,-3.4313,-3.4315,0,0,0,0,0,0,-3.45,-3.4488,-3.4452,-3.4448,-3.4449,-3.4402,-3.4394,-3.4389,-3.4337,-3.4327,-3.4343,-3.4337,-3.4281,-3.4277,-3.4273,-3.4317,-3.4243,-3.4242,-3.4242,-3.4311,-3.4313,-3.4316,0,0,0,0,0,0,-3.4501,-3.4498,-3.4455,-3.4466,-3.4459,-3.4404,-3.44,-3.4389,-3.4382,-3.4328,-3.4318,-3.4346,-3.4279,-3.4274,-3.4284,-3.4313,-3.4242,-3.4241,-3.4308,-3.4311,-3.4315,-3.4405,0,0,0,0,0,0,-3.4503,-3.4499,-3.4514,-3.4467,-3.4459,-3.4467,-3.4402,-3.439,-3.4381,-3.4373,-3.4328,-3.4319,-3.4277,-3.4285,-3.4283,-3.4311,-3.4241,-3.4305,-3.431,-3.4314,-3.4399,-3.4411,-3.4421,0,0,0,0,0,-3.4505,-3.4541,-3.4515,-3.4511,-3.4476,-3.4469,-3.4464,-3.4416,-3.4384,-3.4398,-3.4364,-3.432,-3.431,-3.4287,-3.4284,-3.4312,-3.4303,-3.4308,-3.4313,-3.4394,-3.4409,-3.4421,0,0,0,0,0,0,-3.4592,-3.4534,-3.4504,-3.4527,-3.4504,-3.4454,-3.4471,-3.4433,-3.4418,-3.4411,-3.4351,-3.4342,-3.4359,-3.4336,-3.4311,-3.4348,-3.43,-3.4305,-3.4363,-3.4376,-3.4387,-3.4392,-3.424,0,0,0,0,0,-3.4614,-3.4614,-3.4563,-3.4587,-3.4577,-3.4527,-3.4521,-3.4487,-3.446,-3.445,-3.4416,-3.4391,-3.4382,-3.4378,-3.4367,-3.4395,-3.4384,-3.4413,-3.4424,-3.4433,-3.4438,-3.4452,-3.4464,-3.4333,-3.4333,-3.4333,0,0,-3.4659,-3.4627,-3.463,-3.4604,-3.4582,-3.4582,-3.4519,-3.4522,-3.4521,-3.4449,-3.4457,-3.4432,-3.44,-3.4419,-3.4426,-3.4401,-3.4472,-3.444,-3.4448,-3.4447,-3.4458,-3.4471,-3.4482,-3.4336,-3.4336,-3.4335,0,0,-3.4741,-3.4718,-3.4736,-3.4715,-3.4683,-3.4649,-3.4654,-3.461,-3.4591,-3.4597,-3.4544,-3.4542,-3.4528,-3.4508,-3.4496,-3.4571,-3.453,-3.4569,-3.4627,-3.4641,-3.4651,-3.466,-3.4688,-3.4698,-3.4574,-3.4574,-3.4574,0,-3.4801,-3.4801,-3.4749,-3.4756,-3.4746,-3.4682,-3.47,-3.4682,-3.4648,-3.4642,-3.4614,-3.4596,-3.457,-3.4584,-3.4603,-3.4595,-3.4598,-3.4574,-3.4654,-3.4663,-3.467,-3.4695,-3.4706,-3.4579,-3.4579,-3.4578,-3.4578,0,-3.4876,-3.4876,-3.4895,-3.4864,-3.4856,-3.4868,-3.4819,-3.4816,-3.4782,-3.4751,-3.4759,-3.4726,-3.4707,-3.4707,-3.4674,-3.4717,-3.4702,-3.4665,-3.4616,-3.4689,-3.4711,-3.4721,-3.4586,-3.4584,-3.4583,-3.4582,0,0,-3.5012,-3.4953,-3.4961,-3.4947,-3.4907,-3.4905,-3.4915,-3.4897,-3.4897,-3.4875,-3.4881,-3.4871,-3.4837,-3.4823,-3.4787,-3.4799,-3.4862,-3.476,-3.4759,-3.4781,-3.4907,-3.4936,-3.4948,-3.4834,-3.4836,-3.4837,-3.491,0,-3.5087,-3.51,-3.5054,-3.5079,-3.5079,-3.5018,-3.5026,-3.5002,-3.4974,-3.4969,-3.4936,-3.493,-3.4885,-3.4877,-3.4886,-3.4852,-3.4886,-3.4846,-3.4839,-3.484,-3.485,-3.496,-3.499,-3.5061,-3.4919,-3.492,-3.4921,0,-3.5176,-3.5161,-3.5186,-3.5145,-3.5143,-3.5151,-3.5132,-3.5128,-3.51,-3.5078,-3.5063,-3.5021,-3.5027,-3.498,-3.4986,-3.496,-3.4954,-3.4937,-3.4939,-3.4937,-3.4885,-3.4961,-3.5082,-3.5093,-3.4935,-3.4934,-3.4933,0,-3.5273,-3.5258,-3.5272,-3.5261,-3.5214,-3.5221,-3.5201,-3.5171,-3.5163,-3.5146,-3.5141,-3.5124,-3.5115,-3.5103,-3.5057,-3.5027,-3.507,-3.5019,-3.5051,-3.5053,-3.5063,-3.5063,-3.5186,-3.5059,-3.5059,-3.5059,-3.5059,0,-3.5362,-3.538,-3.5315,-3.5323,-3.5341,-3.5288,-3.5308,-3.5282,-3.5255,-3.5257,-3.5203,-3.5206,-3.5145,-3.5141,-3.5105,-3.5116,-3.5112,-3.5095,-3.5085,-3.51,-3.5102,-3.5096,-3.509,-3.5062,-3.5061,-3.5061,-3.506,0,-3.5474,-3.5431,-3.5442,-3.5396,-3.5385,-3.5401,-3.5361,-3.5367,-3.5335,-3.5338,-3.5335,-3.5285,-3.5277,-3.523,-3.5211,-3.5187,-3.5212,-3.5192,-3.5222,-3.5216,-3.5251,-3.5249,-3.5374,-3.5387,-3.5253,-3.5254,-3.5255,0,-3.5534,-3.5547,-3.5503,-3.5501,-3.5484,-3.5481,-3.5473,-3.5421,-3.5416,-3.5385,-3.5394,-3.5382,-3.537,-3.536,-3.5322,-3.5307,-3.5287,-3.5331,-3.5284,-3.5299,-3.5288,-3.5288,-3.5289,-3.5342,-3.5343,-3.5345,-3.5346,0,-3.5645,-3.5624,-3.5615,-3.56,-3.5593,-3.5578,-3.5559,-3.5561,-3.5503,-3.5499,-3.5492,-3.5482,-3.5464,-3.5453,-3.5431,-3.541,-3.5369,-3.5361,-3.5368,-3.5384,-3.5401,-3.5393,-3.525,-3.5359,-3.5357,-3.5356,-3.5356,-3.5355,-3.5733,-3.5742,-3.5713,-3.5705,-3.5686,-3.5671,-3.5674,-3.5642,-3.5635,-3.5617,-3.5586,-3.5583,-3.5554,-3.5521,-3.5503,-3.5499,-3.5475,-3.5485,-3.5488,-3.5491,-3.5499,-3.5401,-3.5495,-3.5495,-3.5494,-3.5494,-3.5494,0,-3.5842,-3.5821,-3.5814,-3.5791,-3.5785,-3.5748,-3.5725,-3.5723,-3.5721,-3.5698,-3.5687,-3.5678,-3.5667,-3.5628,-3.5613,-3.5617,-3.5598,-3.5615,-3.5614,-3.561,-3.5521,-3.5517,-3.5631,-3.5631,-3.5631,-3.5631,-3.5631,-3.5631,-3.5898,-3.5911,-3.5886,-3.5889,-3.5866,-3.5863,-3.5854,-3.5839,-3.582,-3.5813,-3.5804,-3.5779,-3.5749,-3.5731,-3.5719,-3.5708,-3.5705,-3.5729,-3.5711,-3.5629,-3.5616,-3.5604,-3.5599,-3.5728,-3.5729,-3.58,-3.5801,-3.5801]},{"header":{"parameterUnit":"m.s-1","parameterCategory":1,"la1":30.2991,"la2":30.254,"lo1":-89.0895,"lo2":-89.0444,"dy":0.0017,"dx":0.0017,"nx":28,"ny":28,"refTime":"2023-11-11T09:00:00:Z","depth":0,"parameterNumber":3,"parameterNumberName":"V-component_of_WINDS"},"data":[0,0,0,0,0,0,0,0,0,0,0,0,0,0,0,0,0,0,0,0,0,0,0,0,0,0,0,0,0,0,0,0,0,0,0,0,0,0,0,0,0,0,0,0,0,0,0,0,0,0,0,0,0,0,0,0,0,0,-3.5659,-3.566,0,-3.574,-3.5741,-3.5742,-3.5782,-3.5782,-3.5782,-3.5782,-3.5859,-3.5861,-3.5863,0,0,0,0,0,0,0,0,0,0,0,0,0,-3.5535,-3.5537,-3.5659,-3.566,-3.5661,-3.574,-3.5741,-3.5742,-3.5782,-3.5782,-3.5782,-3.5782,-3.5858,-3.586,-3.5863,0,0,0,0,0,0,0,0,0,0,0,0,0,-3.5599,-3.5538,-3.5659,-3.5691,-3.5695,-3.5739,-3.5741,-3.5742,-3.5782,-3.5782,-3.5782,-3.5782,-3.5857,-3.586,-3.5863,-3.588,0,0,-3.5872,-3.5874,0,0,0,0,0,0,0,0,-3.5595,-3.5604,-3.5685,-3.5689,-3.5693,-3.5751,-3.5725,-3.5788,-3.5782,-3.5749,-3.5782,-3.5782,-3.5822,-3.5828,-3.5843,-3.5884,-3.5887,-3.5873,-3.5874,-3.5876,-3.5877,0,0,0,0,0,0,0,-3.5591,-3.56,-3.5691,-3.5686,-3.5691,-3.5699,-3.5709,-3.5737,-3.5784,-3.5752,-3.5755,-3.5764,-3.5825,-3.584,-3.5845,-3.5888,-3.5873,-3.5875,-3.5877,-3.5878,-3.5948,-3.5948,0,0,0,0,0,0,-3.5582,-3.5596,-3.5688,-3.5693,-3.5644,-3.5702,-3.5712,-3.5732,-3.5784,-3.5792,-3.5764,-3.5766,-3.5835,-3.5842,-3.5848,-3.5872,-3.5876,-3.5878,-3.588,-3.5948,-3.5948,-3.5948,0,0,0,0,0,0,-3.5579,-3.559,-3.5685,-3.5646,-3.5659,-3.5704,-3.5726,-3.5734,-3.575,-3.5793,-3.5801,-3.5772,-3.5835,-3.5844,-3.5873,-3.5875,-3.588,-3.5883,-3.5947,-3.5948,-3.5948,-3.592,0,0,0,0,0,0,-3.5576,-3.5589,-3.5597,-3.5646,-3.5661,-3.571,-3.5726,-3.5735,-3.5755,-3.5758,-3.5803,-3.581,-3.5836,-3.5868,-3.5876,-3.588,-3.5885,-3.5947,-3.5948,-3.5948,-3.5921,-3.5919,-3.5918,0,0,0,0,0,-3.5571,-3.5585,-3.5597,-3.5608,-3.5672,-3.571,-3.5718,-3.575,-3.5755,-3.5763,-3.5791,-3.5809,-3.5874,-3.587,-3.5879,-3.5884,-3.5947,-3.5947,-3.5948,-3.5922,-3.5919,-3.5918,0,0,0,0,0,0,-3.5532,-3.5591,-3.5606,-3.5636,-3.5668,-3.5717,-3.5728,-3.5746,-3.5775,-3.5777,-3.5813,-3.5822,-3.5848,-3.5869,-3.5864,-3.5904,-3.5912,-3.5914,-3.5889,-3.5888,-3.5886,-3.588,-3.5887,0,0,0,0,0,-3.5528,-3.5556,-3.5605,-3.5626,-3.5642,-3.5682,-3.5699,-3.5721,-3.5755,-3.5768,-3.5798,-3.5828,-3.5856,-3.5873,-3.59,-3.5924,-3.5934,-3.5932,-3.593,-3.5928,-3.593,-3.5944,-3.5944,-3.5948,-3.5948,-3.5948,0,0,-3.5518,-3.5554,-3.5568,-3.562,-3.5647,-3.5673,-3.5693,-3.572,-3.5739,-3.5771,-3.5801,-3.5824,-3.586,-3.5886,-3.59,-3.5905,-3.5931,-3.5929,-3.5927,-3.5929,-3.5944,-3.5944,-3.5943,-3.5948,-3.5948,-3.5948,0,0,-3.5513,-3.5543,-3.5565,-3.5593,-3.5634,-3.5661,-3.5666,-3.5712,-3.573,-3.5761,-3.5785,-3.5808,-3.5854,-3.5879,-3.5898,-3.5903,-3.592,-3.5911,-3.5902,-3.5916,-3.5916,-3.5916,-3.5918,-3.5918,-3.5912,-3.5912,-3.5912,0,-3.5495,-3.5538,-3.5573,-3.56,-3.5621,-3.5654,-3.5675,-3.5699,-3.5746,-3.576,-3.5766,-3.5825,-3.5852,-3.5885,-3.5886,-3.59,-3.5906,-3.5906,-3.5913,-3.5913,-3.5914,-3.5916,-3.5917,-3.5911,-3.5911,-3.5911,-3.5911,0,-3.5513,-3.5542,-3.5555,-3.5603,-3.5625,-3.5649,-3.5686,-3.5705,-3.5724,-3.575,-3.5781,-3.5814,-3.5849,-3.5858,-3.5876,-3.5894,-3.5896,-3.5907,-3.5916,-3.5912,-3.5914,-3.5916,-3.5909,-3.5909,-3.591,-3.591,0,0,-3.5486,-3.5555,-3.5559,-3.5581,-3.563,-3.5652,-3.5676,-3.5713,-3.5728,-3.5759,-3.578,-3.5819,-3.583,-3.5851,-3.5873,-3.5885,-3.5887,-3.5895,-3.5896,-3.5892,-3.5908,-3.59,-3.59,-3.5899,-3.5899,-3.5899,-3.5905,0,-3.5489,-3.5537,-3.557,-3.5604,-3.5631,-3.5663,-3.5684,-3.5715,-3.574,-3.5765,-3.5791,-3.5818,-3.583,-3.5844,-3.5857,-3.5884,-3.5891,-3.5884,-3.5917,-3.5918,-3.5908,-3.5902,-3.5893,-3.5897,-3.5907,-3.5907,-3.5907,0,-3.5498,-3.5532,-3.557,-3.5616,-3.5629,-3.5648,-3.5684,-3.5708,-3.5743,-3.576,-3.5784,-3.5807,-3.5833,-3.5839,-3.5875,-3.5869,-3.5885,-3.59,-3.5901,-3.5905,-3.5912,-3.5906,-3.5899,-3.59,-3.5909,-3.5909,-3.5909,0,-3.5475,-3.5529,-3.5559,-3.5577,-3.5632,-3.5645,-3.5668,-3.5704,-3.5724,-3.5755,-3.5768,-3.58,-3.5818,-3.5842,-3.5872,-3.5875,-3.5905,-3.5914,-3.5918,-3.5918,-3.5923,-3.5923,-3.5919,-3.5933,-3.5933,-3.5933,-3.5933,0,-3.5475,-3.5497,-3.555,-3.5568,-3.5593,-3.563,-3.5653,-3.5679,-3.5711,-3.5733,-3.5761,-3.5781,-3.582,-3.5844,-3.5868,-3.5893,-3.5901,-3.5914,-3.592,-3.5912,-3.591,-3.5923,-3.5923,-3.5933,-3.5933,-3.5933,-3.5933,0,-3.5453,-3.549,-3.5525,-3.5575,-3.5588,-3.5604,-3.5646,-3.5664,-3.569,-3.5719,-3.5727,-3.5768,-3.5798,-3.5831,-3.5871,-3.5887,-3.5911,-3.592,-3.59,-3.5904,-3.5907,-3.5906,-3.5911,-3.5913,-3.5925,-3.5925,-3.5924,0,-3.5451,-3.5469,-3.5521,-3.554,-3.5563,-3.5592,-3.5613,-3.565,-3.567,-3.5713,-3.5725,-3.5758,-3.5787,-3.5833,-3.5865,-3.5896,-3.5906,-3.5905,-3.591,-3.5902,-3.5906,-3.5905,-3.5906,-3.5903,-3.5903,-3.5903,-3.5903,0,-3.5442,-3.546,-3.5491,-3.5528,-3.5553,-3.5584,-3.5615,-3.5628,-3.567,-3.5692,-3.5725,-3.5747,-3.5789,-3.5821,-3.5856,-3.5878,-3.5897,-3.5901,-3.5904,-3.5895,-3.5884,-3.589,-3.5896,-3.5901,-3.5901,-3.5901,-3.5901,-3.5901,-3.543,-3.5448,-3.5489,-3.5522,-3.555,-3.5579,-3.5599,-3.5629,-3.5657,-3.5696,-3.5716,-3.5748,-3.5783,-3.5833,-3.5854,-3.5879,-3.5884,-3.5888,-3.5889,-3.589,-3.5888,-3.588,-3.5885,-3.5885,-3.5885,-3.5885,-3.5885,0,-3.5423,-3.5451,-3.5482,-3.5526,-3.5552,-3.557,-3.5606,-3.5626,-3.5655,-3.5687,-3.5715,-3.5752,-3.5784,-3.5819,-3.5852,-3.5865,-3.5874,-3.5872,-3.5872,-3.5876,-3.588,-3.5875,-3.5864,-3.5864,-3.5864,-3.5864,-3.5864,-3.5864,-3.5423,-3.5454,-3.5477,-3.5522,-3.5549,-3.5583,-3.5602,-3.5628,-3.5654,-3.5696,-3.5723,-3.5746,-3.5779,-3.5815,-3.5844,-3.5854,-3.5864,-3.586,-3.5871,-3.5874,-3.5876,-3.5878,-3.5873,-3.5862,-3.5862,-3.5866,-3.5866,-3.5866]}]]